Voltar ao catálogo

QIANFAN-173

AtivoComunicaçõesPO
NORAD 69390·PAYLOAD·🇨🇳 China

Lançado Jun 4, 2026 de Taiyuan Satellite Launch Center

Loading…

Próximas Passagens (próximas 24 horas)

TLE

AtualizadoSource: Space-Track

Época: Sep 14, 2026, 13:27 UTC

1 69390U 26124J   26257.56102886  .00000133  00000-0  18734-3 0  9993
2 69390  89.0064 352.5868 0001641  99.7242 260.4094 13.51021581 14128

Acompanhe QIANFAN-173 em tempo real com AllMySat

Download on the App Store